Temp
17 18 18 19 19 19 19 18 18 18 18 18 18 17 17 17 17 17 17 16 16 16 16 16 16 16 16 16 16 16 16 16 16 16 16 16 17 17 17 17 18 18 18 18 18 18 18 19 19 18 18 17 17 17 17 18 17 17 17 18 17 17 17 17 16 15 15 16 16 15 15 15 15 15 15 15 15 14 14 14 14 14 14 14 13
17 17 18 18 18 19 19 18 18 18 18 18 18 18 17 17 17 17 16 16 16 16 16 16 16 16 16 16 16 16 16 16 16 16 16 17 17 17 17 17 18 18 18 18 18 18 19 19 19 19 18 18 18 17 17 18 18 17 17 18 18 17 17 17 17 16 15 16 16 16 15 15 15 15 15 15 15 15 15 15 15 14 14 14 13
17 17 17 18 18 18 18 18 18 18 18 18 18 18 17 17 17 16 16 16 16 16 16 16 16 16 16 16 16 16 16 16 16 16 16 16 17 17 17 17 18 18 18 18 18 18 18 19 19 19 19 18 18 18 18 18 18 18 18 18 18 17 17 17 17 17 16 16 16 16 16 15 15 15 15 15 15 15 15 15 15 14 14 14 13
17 17 17 17 18 18 18 18 18 18 18 18 18 17 17 17 17 16 16 16 16 16 15 15 15 16 16 16 16 16 16 16 16 16 16 16 16 17 17 17 17 17 17 18 18 18 18 18 19 19 19 18 18 18 17 17 17 18 18 18 18 17 17 17 17 17 17 17 16 16 16 16 16 16 15 15 15 15 15 15 14 14 14 14 14
17 17 16 16 16 17 17 18 18 18 18 18 18 17 17 17 16 16 16 16 16 16 16 15 15 16 16 16 16 16 16 16 16 16 16 16 16 16 17 17 17 17 17 17 17 18 18 18 18 18 18 18 18 18 18 18 18 18 18 18 18 17 17 16 17 17 17 17 17 16 16 16 16 16 16 16 15 15 15 15 15 15 14 14 14
17 16 15 15 15 16 16 17 17 17 17 17 17 17 17 17 16 16 16 16 16 16 16 16 16 16 16 16 16 16 16 16 16 16 16 16 16 16 16 16 17 17 17 17 17 17 17 18 18 18 18 18 18 18 18 18 18 18 18 18 18 17 16 16 16 17 17 17 17 17 16 16 16 16 16 16 15 15 15 15 15 15 14 14 13
16 15 15 15 15 16 16 16 16 16 17 17 17 17 17 16 16 16 16 16 16 16 16 16 16 16 16 16 16 16 16 16 16 16 16 16 16 16 16 16 16 16 16 17 17 17 17 17 17 17 17 18 18 18 18 18 18 18 18 18 18 17 16 16 16 17 17 17 17 16 16 16 16 16 16 15 15 15 15 15 14 14 14 14 13
15 15 15 15 15 15 15 15 15 15 16 16 16 16 16 16 16 16 16 16 16 16 16 16 16 16 16 16 16 16 16 16 16 16 16 16 16 16 16 16 16 16 16 16 16 16 17 17 17 17 17 17 17 18 18 18 18 18 18 18 18 18 17 16 16 16 16 17 16 16 16 16 15 15 15 15 15 14 14 14 14 14 14 13 13
14 14 14 15 15 15 15 15 15 15 15 15 15 15 16 16 16 16 16 16 16 16 16 16 16 16 16 16 16 16 16 16 16 16 16 16 16 16 16 16 16 16 16 16 16 16 17 17 17 17 17 17 17 17 17 17 17 17 17 17 17 17 17 17 17 16 16 16 16 16 15 15 15 15 15 15 15 15 15 14 14 13 13 12 12
12 12 13 13 13 14 14 14 14 14 14 14 14 15 15 15 15 15 16 16 16 16 16 16 16 17 17 16 16 16 16 16 16 16 16 17 17 17 17 17 16 16 17 17 17 17 17 17 17 17 17 17 17 17 17 17 17 17 17 17 17 17 17 17 17 17 16 16 16 15 15 15 15 15 15 15 15 15 14 14 13 13 12 12 11
11 11 11 11 12 13 13 13 13 13 13 13 14 14 15 15 15 15 15 16 16 16 16 16 16 16 17 16 17 17 17 16 16 16 16 16 16 17 17 17 17 17 17 17 17 17 17 17 17 17 17 17 17 17 17 16 16 16 17 17 17 17 17 17 17 17 16 16 16 15 15 15 16 16 15 15 15 15 14 14 13 12 12 11 11
10 10 10 11 11 11 12 12 12 12 12 13 13 13 14 14 14 14 15 15 15 15 15 15 16 16 16 16 16 16 16 16 16 16 16 16 16 16 17 17 17 17 17 17 17 17 17 17 17 17 17 17 17 17 17 16 16 16 16 16 16 16 16 16 16 16 16 16 16 16 16 16 16 16 15 15 15 14 14 14 13 13 12 12 11
8 9 9 10 10 10 11 11 11 11 11 12 12 13 13 13 13 13 13 13 14 14 14 15 15 15 15 15 15 15 15 15 15 15 15 15 16 16 16 16 16 16 16 17 17 17 17 17 17 17 17 17 17 17 17 16 16 16 16 16 16 16 16 16 16 16 16 16 16 16 16 16 16 16 16 15 15 14 14 13 13 13 12 12 11
7 8 8 8 8 9 10 10 10 10 10 11 11 12 12 12 12 12 12 12 13 13 13 14 14 14 14 14 14 14 14 14 14 14 15 15 15 15 15 15 15 16 16 16 16 16 16 16 17 17 17 17 17 17 17 16 16 16 16 16 16 16 16 16 16 16 16 16 15 15 15 15 15 15 15 14 14 14 13 13 13 13 12 11 11
6 7 7 7 8 8 9 9 9 9 9 10 10 10 10 10 11 11 11 12 12 12 12 13 13 13 13 13 13 13 13 13 14 14 14 14 15 15 15 15 15 15 15 15 15 16 16 16 16 16 16 16 16 16 16 16 16 16 16 16 16 15 15 15 15 15 15 15 15 15 15 14 14 14 14 13 13 13 13 13 13 13 11 10 10
6 6 7 7 7 8 8 9 9 9 9 9 9 9 10 10 10 10 11 11 11 11 12 12 12 12 13 13 13 13 12 13 13 13 14 14 14 14 14 14 14 15 15 15 15 15 15 15 15 15 15 16 16 15 15 15 15 15 16 16 16 15 15 15 15 15 15 14 14 14 14 14 14 13 13 13 13 13 12 12 12 11 11 9 8
6 6 6 6 7 7 8 9 9 9 9 9 8 8 9 9 9 9 10 11 11 11 11 11 11 11 12 12 12 12 12 12 12 12 13 13 13 13 13 13 14 14 14 15 14 14 14 14 14 14 15 15 15 15 15 15 15 15 15 15 15 15 14 14 14 14 14 14 14 14 14 13 13 13 13 13 13 12 12 11 11 10 10 9 7
6 6 6 6 7 7 7 8 8 9 9 9 8 8 8 8 8 8 8 9 9 10 10 10 11 11 11 11 11 11 11 10 11 11 11 12 12 12 12 13 13 13 13 14 14 14 14 14 13 13 14 14 15 14 14 14 14 14 14 14 14 14 14 14 14 14 13 13 13 13 13 13 12 13 13 12 11 11 11 11 11 10 10 9 8
6 6 6 7 7 7 7 7 7 7 7 7 7 8 7 7 7 7 7 8 8 9 9 10 10 10 10 10 10 10 10 10 10 10 10 10 11 11 11 11 12 12 12 12 13 13 13 13 13 13 13 13 13 13 13 13 13 13 13 13 13 13 14 14 14 13 13 12 12 12 12 12 12 12 12 11 10 10 10 10 10 10 10 10 9
5 6 6 6 6 6 6 6 6 6 6 6 6 7 7 7 7 7 7 6 7 7 8 9 9 9 9 9 9 9 9 9 9 9 9 10 10 10 10 10 10 11 11 11 12 12 12 13 13 12 12 12 12 12 12 12 12 13 13 12 12 13 13 13 13 12 12 11 11 12 11 11 11 11 11 10 10 10 10 10 10 10 10 10 9
6 6 6 6 6 5 5 5 5 5 5 6 6 6 6 6 6 6 6 6 6 7 7 7 8 8 8 8 8 8 8 8 9 9 9 9 9 9 9 9 9 9 10 10 11 11 12 12 12 12 12 12 12 11 11 11 11 12 12 12 12 12 12 12 12 12 12 11 11 11 10 10 10 10 10 10 10 10 9 9 9 9 9 9 8
6 6 5 5 5 5 5 5 5 5 5 5 5 5 5 5 5 5 6 6 6 6 6 7 7 7 7 7 7 8 8 8 8 8 9 9 8 8 8 8 8 8 9 9 10 10 11 11 12 12 12 12 11 11 11 11 10 11 11 11 11 11 11 11 11 11 11 11 10 10 10 10 10 9 9 9 9 9 9 9 9 8 8 8 8
6 5 5 4 4 4 4 4 4 4 4 4 4 4 4 4 5 5 5 5 5 6 6 6 6 6 6 6 7 7 7 7 7 8 8 8 8 8 7 7 8 8 8 8 9 9 10 10 11 11 11 11 11 10 10 10 10 10 10 11 11 11 10 10 10 10 10 10 10 10 9 9 9 9 8 8 8 8 8 8 8 8 7 7 7
5 5 5 4 4 4 4 4 4 4 4 4 4 4 4 4 4 4 4 4 4 4 4 4 4 4 5 5 5 5 6 6 6 6 7 7 7 7 7 7 7 7 7 7 8 8 8 9 9 10 11 11 11 11 10 9 9 10 10 10 10 10 9 9 9 9 9 9 9 9 9 8 8 8 8 8 8 7 7 7 7 7 7 6 6
5 4 4 4 4 4 4 3 3 3 3 3 3 3 3 3 4 4 4 4 3 3 3 3 3 3 3 3 3 4 4 4 5 5 5 6 6 6 7 7 7 7 7 7 7 7 7 8 8 9 10 10 11 11 10 9 9 10 10 10 10 9 9 9 9 8 8 8 9 9 8 8 8 8 8 7 7 7 7 6 6 6 6 5 5
5 4 4 4 4 4 4 3 3 3 3 3 3 3 3 3 3 3 3 3 3 3 3 3 3 3 2 2 2 3 3 3 3 4 4 5 5 5 6 6 6 6 6 7 7 7 7 7 7 8 9 10 9 9 9 9 9 9 9 10 9 9 8 9 8 8 8 8 8 8 7 7 7 7 7 6 6 6 6 6 5 5 4 4 3
5 4 4 4 4 4 4 3 3 3 3 3 3 3 3 2 2 2 2 2 2 2 2 2 2 2 2 2 2 2 2 2 3 3 3 4 4 5 5 5 5 6 6 6 6 6 6 7 7 8 9 9 9 8 7 8 8 9 9 9 9 8 8 9 9 9 9 8 7 7 7 7 7 6 6 6 6 5 5 5 5 4 3 3 2
5 4 4 4 4 4 4 3 3 3 3 3 3 2 2 2 1 1 1 1 1 1 1 1 1 1 1 1 1 1 2 2 2 2 3 3 3 3 3 4 4 4 5 5 5 5 6 6 6 6 6 6 6 6 6 7 8 8 8 9 9 8 8 8 8 8 8 7 7 6 6 6 6 5 5 5 5 5 4 5 4 3 2 2 2
4 4 4 4 4 4 3 3 3 3 2 2 2 2 1 1 1 1 1 1 1 1 1 1 1 1 1 1 1 1 1 1 2 2 2 3 3 3 3 3 3 4 4 4 4 5 5 5 5 4 4 4 5 5 5 6 6 7 7 7 8 8 7 7 6 6 6 6 6 6 6 5 5 5 5 5 4 4 4 4 3 3 2 2 2
4 4 4 4 4 3 3 3 2 2 2 2 2 1 1 1 1 1 1 1 1 1 1 1 1 1 1 1 1 1 1 1 2 2 3 3 3 3 3 3 4 4 4 4 4 4 5 4 4 3 4 4 4 4 5 5 5 6 6 6 6 6 6 6 6 6 6 6 6 6 6 5 5 4 4 4 4 3 3 3 3 2 2 2 1
5 4 4 4 4 3 3 3 2 2 2 2 2 1 1 1 1 1 1 1 2 2 2 2 2 2 1 1 2 1 2 2 2 2 2 3 3 4 4 4 4 4 4 4 4 4 4 4 3 4 4 4 4 4 4 4 4 5 5 4 4 5 5 5 5 6 6 6 6 6 5 5 5 4 4 4 4 3 2 2 2 2 2 1 1
5 4 4 4 4 3 3 3 2 2 2 2 2 2 2 1 2 2 2 2 2 2 2 2 2 2 2 2 2 2 2 2 2 2 2 3 3 4 4 4 4 4 4 4 4 4 3 3 3 4 4 4 3 3 3 3 3 4 4 4 3 4 4 5 5 5 4 4 5 5 5 5 4 4 4 4 3 3 2 2 2 1 1 1 0
5 4 4 4 4 3 3 3 3 2 2 2 2 2 2 2 1 2 2 2 3 3 2 2 2 2 2 2 2 2 2 2 2 2 3 3 3 3 4 4 4 4 4 4 4 3 3 3 3 4 4 3 3 3 3 3 3 3 3 3 3 3 3 3 4 4 3 3 3 4 4 4 4 4 4 3 3 2 2 1 1 1 1 0 0
5 5 4 4 4 3 3 3 3 2 2 2 2 2 2 2 2 1 1 2 2 3 3 2 2 2 3 3 2 2 2 2 2 2 3 3 3 3 4 4 4 4 4 4 3 3 3 3 3 4 4 3 3 3 3 3 3 3 3 2 2 2 2 2 2 3 3 3 3 4 4 4 4 4 3 3 2 2 2 1 1 1 0 0 -0
5 5 4 4 4 3 3 3 3 2 3 3 3 2 2 2 2 2 1 1 1 2 2 2 2 3 3 3 3 3 2 2 2 2 3 3 3 3 4 4 4 4 3 3 3 3 3 3 3 4 4 3 3 3 3 3 3 3 3 3 2 2 2 1 2 2 3 3 4 4 4 4 4 3 3 3 2 2 1 1 1 0 0 0 -0
5 5 4 4 4 3 3 3 3 3 3 3 2 2 2 2 2 2 2 2 2 2 2 2 3 3 3 3 3 3 3 2 2 2 3 3 3 3 3 3 2 2 2 2 2 3 3 3 3 4 3 3 3 3 3 3 3 3 3 3 3 2 2 2 2 3 3 3 4 4 4 3 3 3 3 2 2 1 1 1 0 0 0 0 -0
5 4 4 4 3 3 3 3 3 3 3 3 3 3 2 2 2 2 2 2 2 2 2 2 3 3 3 3 3 3 3 3 3 3 3 3 3 3 3 2 1 1 1 2 2 2 3 3 3 3 3 3 3 3 3 3 3 3 3 3 3 2 2 2 2 2 3 3 3 3 3 3 3 3 2 2 1 1 1 0 0 0 0 0 0
4 4 4 4 3 3 3 3 3 3 3 3 3 3 2 2 2 2 2 2 2 2 2 2 2 2 2 2 2 3 3 3 3 4 3 3 3 2 2 2 2 2 2 2 2 2 3 3 3 3 3 3 3 3 3 3 3 3 3 3 2 2 1 1 2 2 2 2 2 2 3 3 3 3 2 2 1 1 0 0 0 0 0 0 0
4 4 4 3 3 3 3 3 3 3 3 3 3 3 3 2 2 2 2 2 2 2 2 2 2 1 1 2 2 2 3 3 3 3 3 3 2 2 2 3 3 3 3 3 3 3 3 3 2 2 2 3 2 2 2 2 2 2 2 2 2 2 2 2 2 2 2 2 2 2 2 2 2 2 2 2 1 0 0 0 0 0 0 0 0
4 4 4 3 3 3 3 3 3 3 3 3 3 3 2 2 2 2 2 2 2 2 2 2 1 1 1 2 2 2 2 2 2 2 2 2 2 2 2 3 3 3 3 3 3 2 2 2 2 2 2 2 2 2 2 2 1 2 2 2 2 2 2 2 2 2 2 2 2 2 2 2 2 2 2 1 1 0 0 0 0 0 0 0 0
4 4 4 3 3 3 2 3 3 2 2 3 3 2 2 2 2 2 1 1 2 2 2 2 1 1 2 2 1 2 2 2 2 2 2 1 1 2 2 2 3 3 2 2 2 2 2 2 2 2 2 1 1 1 1 1 1 1 2 2 3 3 3 2 2 2 2 2 2 2 2 2 1 1 1 1 0 0 0 0 0 0 0 0 0
4 4 4 3 3 3 2 2 2 2 2 2 2 2 2 2 2 2 1 1 1 2 2 2 1 2 2 2 2 2 2 2 2 2 1 1 1 1 2 2 2 2 2 1 1 1 1 1 1 1 1 1 1 1 1 1 2 2 2 3 3 2 2 2 1 1 1 1 2 2 1 1 1 1 1 0 0 0 0 0 0 0 0 0 0
4 4 3 3 3 2 2 2 2 2 2 2 2 2 2 2 2 2 1 1 2 2 1 1 1 2 2 2 2 2 2 2 1 1 1 1 1 1 1 2 2 2 2 1 0 0 1 1 0 0 0 0 0 0 0 1 2 2 2 2 2 1 1 1 1 1 1 1 1 1 1 1 1 1 0 0 0 0 0 0 0 0 0 1 1
4 4 3 3 2 2 2 2 2 2 1 1 2 2 2 2 2 1 1 1 1 1 1 1 1 2 2 2 2 1 1 1 0 0 0 0 0 1 1 1 2 2 2 1 1 0 1 0 0 0 0 -0 -0 0 1 1 1 1 1 1 1 1 1 1 1 1 1 1 1 1 1 1 1 0 0 0 0 0 0 0 1 1 1 1 1
4 4 4 3 2 2 2 1 1 1 1 1 1 2 2 2 2 1 1 1 1 1 1 1 1 1 1 1 1 1 0 -0 -0 -1 -1 -0 -0 0 0 1 1 2 2 1 1 1 1 1 0 0 0 0 0 0 1 1 1 1 1 1 1 1 1 1 1 1 1 1 1 1 1 1 0 0 0 0 0 0 0 1 1 1 1 1 1
4 4 4 3 2 2 1 1 1 1 1 1 1 2 2 1 1 1 1 1 1 1 1 1 1 0 0 1 0 0 -0 -0 -1 -1 -1 -1 -1 -0 -0 -0 0 1 1 1 0 0 0 0 0 0 0 0 0 0 0 0 0 0 0 1 1 1 1 1 1 1 1 1 1 1 1 0 0 0 0 0 0 0 1 1 1 1 1 1 1
4 4 4 3 3 2 1 1 1 1 1 1 1 1 1 1 1 1 1 1 1 1 1 1 0 0 0 0 -0 -0 -0 -0 -1 -1 -1 -1 -1 -1 -1 -0 -0 -0 0 0 0 0 0 0 0 -0 -0 -0 0 0 0 0 0 0 0 1 1 1 1 1 0 0 0 1 1 1 1 0 0 0 0 0 0 1 1 1 1 1 0 1 1
4 3 3 3 3 2 1 1 1 1 1 1 1 1 1 1 1 1 1 1 1 1 1 1 0 0 0 0 -0 -0 -0 -0 -1 -1 -1 -1 -1 -1 -1 -0 -0 -0 -0 -0 -0 -0 -0 0 0 0 0 0 0 0 0 0 0 0 0 0 0 0 0 0 0 0 0 0 1 1 1 0 0 0 0 0 1 1 1 1 1 0 0 0 1
4 3 3 3 3 2 1 1 1 1 1 1 1 1 1 1 1 1 1 1 1 0 0 1 1 1 1 0 0 -0 -0 -0 -0 -0 -0 -1 -1 -0 -0 -0 -0 -0 -0 -0 -0 -0 -0 -0 0 0 0 0 0 0 0 0 0 0 0 0 0 0 0 0 0 0 0 0 0 0 0 0 0 0 0 0 1 1 1 1 1 1 0 0 1
4 3 3 4 3 2 1 1 1 1 1 1 1 1 1 1 1 1 1 1 1 0 0 1 1 0 0 0 0 -0 -0 -0 -0 -0 -0 -0 -0 -0 -0 -0 -0 -0 -0 -0 -0 -0 -0 0 0 0 0 0 0 0 0 0 0 0 0 0 -0 -0 -0 -0 0 -0 -0 -0 -0 -0 -0 -0 0 0 0 0 1 1 1 1 1 1 1 1 1
4 3 3 4 3 2 2 1 1 1 1 1 1 1 1 1 1 1 0 0 0 0 0 0 0 0 0 0 -0 -0 -0 -0 -0 -0 -1 -1 -1 -1 -0 -0 -0 -0 -0 -0 -0 -0 -0 0 0 0 0 0 0 0 0 0 0 0 -0 -0 -0 -0 -0 -0 -0 -0 -0 -1 -1 -0 -0 0 0 0 0 0 1 1 1 1 1 1 1 1 1
Height
802 804 806 809 812 813 815 817 818 820 821 822 823 824 825 826 827 828 828 829 830 831 831 832 832 833 833 834 835 836 837 838 839 840 840 842 843 843 844 845 845 846 846 847 848 849 850 850 851 852 853 854 856 858 859 861 862 863 865 866 866 867 868 869 870 871 873 875 876 877 877 878 879 879 880 881 882 883 883 884 884 885 885 886 886
797 800 803 806 810 812 814 816 817 819 821 822 823 823 825 826 827 828 828 829 830 831 832 832 832 833 833 834 836 836 838 839 839 841 841 842 843 844 845 846 846 847 847 848 849 849 850 851 851 852 853 854 855 857 859 860 861 863 864 865 866 867 868 869 870 871 872 874 875 876 877 877 878 879 880 880 881 882 883 883 884 884 885 885 885
796 798 801 805 808 811 814 815 816 818 819 821 822 823 824 826 827 828 829 829 830 831 832 832 833 834 834 835 836 837 838 839 840 841 842 843 844 845 846 847 847 848 848 849 850 850 851 851 852 852 852 853 855 856 858 860 861 862 864 865 865 866 867 869 869 870 871 873 874 875 876 877 878 879 880 880 881 881 882 883 883 883 884 884 884
798 801 803 805 809 811 813 815 816 818 819 820 821 823 824 826 827 829 829 830 831 831 832 833 833 834 835 836 837 838 839 840 841 842 843 844 845 846 847 848 848 849 849 850 851 851 852 852 852 853 853 854 855 856 858 860 861 862 863 864 865 865 867 868 869 870 870 871 872 873 875 876 877 878 879 880 880 880 881 881 882 882 883 883 883
798 802 805 808 810 812 814 816 817 819 820 820 821 823 825 826 828 829 830 830 831 832 832 833 834 834 835 836 837 838 839 840 841 842 843 844 845 846 847 848 849 849 850 851 851 852 852 853 853 854 854 855 856 857 858 860 861 862 863 863 864 864 865 867 868 869 869 870 871 872 873 875 876 877 877 878 879 879 880 880 880 881 881 881 882
797 802 806 808 811 813 815 817 818 819 821 821 822 823 825 827 828 829 830 831 832 832 833 833 834 834 835 836 837 838 839 840 841 842 843 844 845 846 847 848 849 850 850 851 852 852 853 854 854 855 855 856 857 858 859 860 861 861 862 862 863 863 864 865 867 867 868 869 869 870 872 873 874 875 876 876 877 878 878 878 879 879 879 880 880
798 801 803 806 811 813 815 817 818 820 821 822 823 824 825 827 828 829 830 831 832 833 833 833 834 834 835 836 837 838 839 840 841 842 843 844 845 846 847 848 849 850 850 851 852 853 853 854 855 856 856 857 858 859 859 860 860 861 862 862 862 862 863 864 866 867 867 868 868 869 870 871 872 873 874 875 876 876 876 877 877 877 877 878 878
799 801 802 804 809 812 814 817 819 821 822 823 825 826 827 827 828 829 830 831 832 832 833 833 834 834 835 835 836 837 838 840 841 842 843 844 845 845 846 847 848 849 850 851 852 853 854 855 855 856 857 858 859 859 860 860 860 861 861 861 862 862 862 863 864 865 866 867 867 868 869 870 870 871 872 873 873 874 874 875 875 875 876 876 877
800 802 804 805 808 812 814 817 820 822 822 823 825 827 827 828 828 830 830 831 832 832 833 833 833 834 834 835 836 837 838 839 840 841 842 843 844 845 845 846 847 849 850 850 851 852 853 854 855 856 857 858 858 859 859 860 860 860 861 861 861 862 862 863 864 864 865 865 866 867 867 868 868 869 870 870 870 871 872 873 873 874 875 875 875
801 803 805 807 809 811 814 817 819 821 822 823 825 826 827 828 829 830 830 831 832 832 833 833 833 834 834 834 835 836 837 839 840 841 842 842 843 844 844 845 846 847 848 849 850 851 852 854 854 855 856 857 858 858 858 859 859 860 860 860 860 861 861 862 863 863 863 864 864 865 865 865 865 866 867 867 868 869 870 871 871 872 873 874 874
803 805 807 809 810 812 814 817 818 820 822 823 824 825 826 827 829 830 830 831 831 832 832 832 832 833 834 834 835 836 837 838 839 840 841 842 842 843 843 844 845 846 847 848 849 850 851 852 853 854 855 855 856 857 857 858 858 858 859 859 859 860 860 861 861 861 862 862 862 863 863 863 864 864 865 866 867 867 867 868 869 870 870 871 872
805 807 809 810 812 813 815 817 818 820 822 823 824 825 826 827 829 830 830 831 832 832 832 832 832 832 833 834 835 836 837 838 839 840 840 841 842 842 842 843 844 845 846 847 848 848 849 850 851 852 853 854 855 855 856 856 857 857 857 858 858 858 859 859 859 860 860 860 861 861 862 862 862 863 864 864 864 865 865 866 866 866 867 867 868
808 810 812 813 814 816 817 818 820 821 822 823 824 826 827 828 830 830 831 832 833 832 833 832 832 833 833 834 835 836 836 837 837 838 839 840 840 841 841 842 843 844 844 845 846 846 847 848 849 850 851 852 853 854 854 855 855 855 856 856 857 857 857 857 858 858 859 859 859 860 860 861 861 862 862 862 863 863 863 863 864 864 864 865 866
812 813 815 816 818 818 819 820 822 823 824 825 825 827 828 830 831 832 833 834 834 833 833 833 833 833 834 834 835 836 836 836 837 838 838 838 839 839 840 840 841 842 843 843 844 844 845 846 847 848 849 850 851 851 852 853 853 853 854 854 854 855 855 855 856 856 857 857 857 858 858 859 859 860 861 861 862 862 862 863 862 862 863 864 865
816 817 818 820 821 821 821 822 824 825 827 827 827 828 830 832 833 834 834 835 835 835 834 833 833 833 834 835 835 836 836 837 837 837 838 838 838 838 839 839 839 840 841 842 842 843 843 844 845 846 846 848 849 849 850 851 851 851 852 852 852 852 853 853 853 854 854 854 855 856 856 856 857 858 859 860 861 861 862 862 861 861 861 862 863
820 821 821 822 823 825 825 824 825 827 829 829 829 829 831 833 835 836 836 836 836 836 835 834 834 834 835 836 836 836 837 837 837 837 837 837 837 837 837 838 838 838 839 840 840 841 841 842 843 843 844 845 846 847 848 848 849 849 849 850 850 850 850 850 851 851 851 852 852 853 853 854 854 855 856 856 857 858 860 861 860 860 860 861 862
823 824 825 825 825 827 828 826 827 829 830 830 831 832 833 834 836 837 837 836 836 835 835 835 834 835 835 836 837 837 837 837 837 837 837 837 836 836 836 836 837 837 837 837 838 838 839 840 840 841 841 842 843 844 845 845 846 846 847 847 847 847 848 848 848 848 849 849 849 850 850 851 852 852 853 853 853 854 856 857 858 858 859 860 861
826 827 828 827 827 829 830 829 830 831 831 832 833 834 834 836 837 838 838 837 836 836 835 834 834 835 836 837 838 839 839 839 838 838 837 837 837 836 836 836 836 836 835 835 836 836 836 837 837 838 838 839 840 841 841 842 842 842 843 843 843 844 845 846 846 845 846 846 846 847 847 848 848 849 850 850 850 852 853 854 856 858 858 859 860
830 831 831 830 829 831 831 832 833 834 834 835 836 836 836 837 837 838 839 839 838 836 835 834 834 835 836 837 838 839 839 840 839 839 838 837 837 836 836 835 835 835 834 834 833 834 834 834 835 835 835 836 837 837 838 838 838 839 839 839 840 840 841 842 842 842 843 843 844 844 844 845 845 846 847 849 849 850 851 853 855 857 858 859 859
833 834 834 833 832 833 833 834 835 836 837 838 838 837 837 837 837 837 839 840 839 837 836 835 835 836 837 837 838 838 839 839 839 839 838 837 836 836 835 835 834 833 833 832 832 831 832 832 833 833 834 834 834 835 836 836 836 836 836 836 836 837 838 839 840 840 841 841 841 841 842 843 843 844 846 847 848 849 850 852 853 855 856 857 858
834 835 835 834 834 834 834 835 836 838 838 838 838 838 837 837 837 838 839 840 840 838 836 835 835 836 836 837 837 837 837 837 837 837 837 836 835 835 834 834 833 832 831 831 830 829 829 829 830 831 832 832 832 832 833 833 833 833 832 832 833 834 835 836 837 838 838 838 839 839 840 841 842 843 844 845 846 847 849 850 852 853 854 855 856
835 835 835 835 834 834 835 835 836 837 838 838 838 838 838 838 839 839 839 838 837 836 834 834 834 835 835 835 835 835 835 835 835 835 834 834 834 833 833 832 832 830 829 828 828 827 827 827 827 828 828 828 828 829 829 830 831 830 830 830 830 831 831 832 833 835 835 835 836 837 838 839 840 841 842 843 844 846 848 849 851 852 853 854 854
836 836 836 836 836 836 836 836 836 837 837 838 838 838 838 838 838 837 837 836 835 834 833 833 833 833 833 833 834 834 834 834 834 834 833 833 832 832 832 831 831 830 828 827 827 826 825 825 824 825 825 825 824 825 825 826 827 826 826 827 828 828 828 829 830 831 832 833 834 834 836 836 837 838 840 841 843 845 846 848 849 850 851 852 853
837 838 837 838 838 837 837 837 837 837 837 837 837 837 837 836 836 835 835 834 834 834 833 833 832 832 832 832 833 833 833 833 834 834 833 832 831 831 830 830 829 829 827 826 826 825 824 823 823 822 822 821 821 820 820 821 822 822 823 823 824 825 825 826 827 828 829 830 831 832 833 834 835 836 838 840 842 844 845 847 848 849 851 851 852
839 839 839 840 840 839 839 838 838 838 838 837 837 837 836 836 836 835 835 835 834 834 834 833 833 833 833 832 832 832 832 832 833 833 833 831 830 830 829 828 828 827 826 825 824 823 822 821 821 820 819 818 817 817 816 816 817 818 819 819 820 820 821 822 824 825 826 827 827 828 830 832 834 835 836 838 841 842 844 845 847 849 850 851 852
840 841 841 841 841 840 840 840 840 840 840 839 839 839 838 838 837 836 836 835 835 834 834 834 833 833 833 832 832 831 831 831 831 831 830 830 829 828 828 827 826 825 824 822 821 820 819 818 818 817 816 815 814 813 813 813 813 814 814 815 815 816 816 818 819 820 821 823 824 826 828 830 832 835 836 837 839 841 843 845 847 849 850 851 853
841 842 842 842 842 842 843 843 843 843 842 842 842 841 840 839 838 837 836 835 835 834 834 834 834 833 833 833 832 831 831 830 830 829 829 828 827 826 826 825 824 823 821 820 818 817 816 815 814 813 813 812 811 810 809 809 810 810 810 810 810 811 812 813 814 815 817 819 821 823 826 828 830 833 835 837 839 841 843 845 846 848 850 852 853
843 844 844 844 845 845 845 845 845 844 844 843 842 841 840 839 837 836 836 835 835 834 834 834 834 833 833 832 831 830 830 830 829 828 827 826 825 824 823 822 822 820 819 818 816 814 813 812 811 810 809 808 807 807 806 806 806 806 805 805 805 806 807 809 811 812 814 815 818 820 823 825 828 831 833 836 838 841 843 844 846 848 850 852 853
845 846 846 846 846 846 846 845 845 844 843 843 841 840 839 838 837 836 836 835 835 835 834 834 833 833 832 832 831 830 828 828 827 826 825 824 823 821 820 819 818 817 816 815 813 811 810 809 808 807 806 806 804 804 803 802 802 802 801 801 801 802 803 804 806 808 809 812 814 817 820 822 825 828 832 835 837 840 842 843 845 848 849 851 851
846 846 846 846 846 846 845 845 844 843 842 842 841 839 838 838 837 836 835 835 835 834 834 833 832 832 831 830 830 828 827 825 824 823 822 821 820 819 817 816 815 813 812 812 810 808 807 806 805 804 804 803 802 801 801 800 799 799 798 799 799 798 798 800 801 803 805 808 810 812 815 819 823 826 829 833 836 839 841 843 845 847 848 849 849
846 845 845 845 844 844 844 843 843 842 841 840 839 838 837 836 836 836 835 834 833 833 833 832 832 831 830 828 827 826 825 823 822 820 818 817 816 815 814 813 811 810 809 808 806 805 804 803 802 802 802 801 800 800 799 799 798 797 797 796 797 797 796 797 798 801 802 803 806 809 812 815 819 824 827 831 834 838 840 842 844 845 846 847 848
844 844 844 843 842 842 842 841 841 840 840 839 838 837 836 835 834 833 833 833 833 832 831 831 830 829 828 826 825 823 822 820 818 817 815 814 813 812 810 809 808 808 807 806 804 803 803 802 801 800 800 799 799 798 798 797 796 796 795 795 795 796 796 795 796 798 801 802 802 804 809 813 818 823 826 829 833 836 839 841 842 843 845 846 847
843 842 842 841 841 840 840 840 839 839 838 838 837 836 835 834 833 831 830 830 830 830 829 829 828 827 826 825 823 821 820 818 816 814 813 811 810 809 808 807 806 805 804 804 803 802 802 801 800 799 798 798 797 797 796 796 795 794 794 793 794 795 796 796 795 798 802 805 804 804 808 814 819 823 826 828 831 834 837 839 841 842 844 845 846
842 841 841 841 840 840 840 839 839 839 838 837 836 835 835 834 833 832 830 828 827 827 827 827 826 825 824 823 822 820 818 816 814 813 811 810 808 807 806 804 804 803 802 802 801 800 800 799 798 798 797 796 796 796 795 795 794 793 793 793 793 794 795 797 797 798 803 808 809 809 812 816 820 822 825 827 830 833 836 838 840 841 843 844 844
842 842 841 841 840 840 840 839 839 838 838 837 836 835 835 834 833 832 831 829 827 826 825 825 825 824 823 822 820 819 817 815 813 811 810 808 807 805 804 803 802 801 801 800 800 799 799 798 797 796 796 795 795 795 795 794 793 793 792 792 792 793 795 798 800 801 804 809 812 814 817 820 822 823 824 826 830 833 835 837 839 840 841 842 843
842 841 841 841 840 840 839 839 839 838 837 837 836 835 834 834 833 831 831 830 828 826 825 824 824 824 823 822 820 818 817 815 813 811 810 808 806 805 803 802 801 800 800 799 799 798 797 796 796 795 794 794 794 794 794 794 793 793 792 792 792 794 796 799 802 804 808 812 814 816 819 822 823 823 824 826 829 832 834 836 838 839 840 840 841
842 841 841 840 840 839 839 839 839 838 837 837 836 835 834 833 832 831 830 829 828 827 826 824 823 822 821 821 819 817 816 814 813 811 809 808 806 805 803 802 801 800 800 799 798 797 796 795 794 794 793 793 792 793 793 794 794 793 793 793 793 795 797 799 803 806 810 813 816 818 820 822 823 823 825 826 829 832 834 836 837 838 839 839 840
841 841 840 840 839 839 839 839 838 838 837 837 836 835 834 833 832 831 831 830 829 828 826 825 823 822 820 819 818 817 815 813 811 810 809 807 806 805 803 802 801 800 799 798 797 796 795 794 793 792 792 791 792 792 792 793 794 794 794 794 796 798 799 801 804 807 810 813 816 819 821 822 823 824 825 826 829 831 833 835 836 837 837 838 838
840 840 840 839 839 839 839 838 838 838 837 836 835 834 834 833 832 832 831 830 829 828 827 825 824 823 821 819 818 816 814 813 811 810 808 807 806 805 804 802 801 800 799 797 796 795 794 793 792 791 791 791 791 791 792 792 793 795 795 796 797 800 802 803 805 808 810 813 817 819 821 823 824 825 826 827 829 831 832 834 835 835 835 836 838
840 839 839 839 839 838 838 838 838 837 837 836 835 834 834 833 833 832 831 830 829 828 827 826 824 823 822 820 818 816 815 813 812 811 809 808 807 805 804 802 801 800 799 797 796 794 793 792 792 791 791 791 791 791 792 793 794 795 797 798 799 801 803 805 807 810 813 815 818 820 822 823 825 826 828 829 830 831 832 833 834 834 834 836 838
839 839 839 838 838 838 838 838 837 837 836 836 835 835 834 834 833 832 831 830 829 828 827 826 825 824 822 821 820 818 816 815 813 812 810 809 808 806 805 803 802 801 799 798 796 795 794 793 792 792 791 791 792 792 793 794 795 797 798 800 801 803 806 808 811 813 815 818 820 822 823 825 826 828 829 830 830 831 832 833 833 833 835 836 838
839 839 838 838 837 837 837 837 837 837 836 836 835 835 834 834 833 832 831 830 829 828 827 826 825 824 823 822 820 819 817 816 814 812 811 810 808 807 806 805 803 802 800 799 797 796 795 795 794 793 793 793 793 794 795 796 797 799 801 802 804 806 808 811 813 815 817 820 822 824 826 827 828 829 830 830 830 831 831 833 833 834 835 837 838
838 838 838 837 837 837 837 837 837 836 836 835 835 835 834 834 833 833 832 831 830 829 828 827 826 825 823 822 821 819 817 816 814 813 812 811 809 808 807 806 805 803 802 800 799 798 797 797 796 796 795 795 796 797 798 799 800 801 803 805 807 809 811 813 815 817 819 821 824 826 827 828 829 830 830 830 830 831 832 833 834 835 836 837 838
838 838 837 837 837 836 836 836 836 836 836 835 835 835 835 834 834 833 832 832 831 830 829 828 827 826 824 823 821 819 818 816 815 814 813 812 811 810 809 808 806 805 804 802 801 800 799 799 799 799 799 799 800 801 802 803 804 805 806 808 810 811 813 815 816 818 821 823 825 827 828 829 829 830 830 831 831 832 833 834 835 836 836 837 839
838 838 837 837 836 836 836 836 836 836 835 835 835 835 835 835 834 834 833 832 832 831 830 829 828 827 825 824 822 820 819 818 817 816 815 814 813 812 811 810 809 807 806 805 804 803 802 802 802 802 802 802 803 805 806 807 808 809 810 811 813 814 815 817 819 821 823 824 826 827 828 829 830 830 831 832 833 833 834 835 836 836 837 838 839
837 837 837 837 836 836 836 836 836 836 835 835 835 835 835 835 835 834 834 833 833 832 831 830 829 828 827 825 824 822 821 820 819 818 817 816 815 814 813 812 811 810 809 808 807 806 806 806 806 805 805 805 806 807 808 809 811 812 813 814 815 816 818 820 821 823 824 826 827 828 828 830 831 832 832 833 834 835 836 836 836 837 837 838 838
837 837 837 837 836 836 836 836 836 836 836 836 836 836 836 835 835 835 834 834 834 833 832 831 830 829 828 827 826 825 824 823 822 821 820 819 817 816 815 815 814 813 812 812 811 810 810 809 809 809 809 809 810 811 811 812 813 814 815 817 818 819 820 822 823 825 826 827 828 829 830 831 832 833 834 835 835 836 836 837 837 837 837 837 837
836 837 837 836 836 836 836 836 836 836 836 836 836 836 836 836 836 835 835 835 835 834 833 833 832 831 830 829 828 827 826 825 825 824 822 821 820 819 818 818 817 816 816 815 814 814 813 813 813 813 813 813 813 814 815 815 816 817 818 819 820 822 823 824 825 826 827 828 829 831 831 833 834 834 835 836 836 836 836 837 837 837 837 837 837
836 836 836 836 836 836 836 836 836 836 836 836 836 837 836 836 836 836 836 836 835 835 834 834 833 833 832 831 831 830 829 828 827 827 826 825 824 823 822 821 821 820 819 819 818 818 817 817 817 817 816 817 817 818 818 819 819 820 820 821 822 824 825 825 826 827 828 829 831 832 832 833 834 835 835 836 836 836 837 837 837 837 837 837 838
835 835 836 836 836 836 836 836 836 836 836 836 837 837 837 837 837 836 836 836 836 836 835 835 835 834 834 833 833 832 831 831 830 829 829 828 827 827 826 825 824 823 823 822 822 821 820 820 820 819 819 820 820 820 821 821 821 822 823 823 824 825 826 827 827 828 829 830 831 832 833 834 834 835 836 836 837 837 838 838 838 838 838 838 838
834 835 835 835 836 835 835 835 836 836 836 836 837 837 837 837 836 836 836 836 836 836 836 836 836 836 835 835 834 834 833 833 832 832 831 831 830 829 829 828 827 826 826 825 825 824 823 823 823 822 822 822 822 823 823 823 823 824 825 825 826 827 827 828 828 829 830 831 832 833 834 835 835 836 837 837 838 838 838 838 838 838 838 838 838
Wind_Speed
21 22 23 23 22 21 20 18 17 16 16 15 15 15 14 13 12 10 9 8 8 8 7 5 4 4 6 6 5 5 4 4 4 4 4 4 4 5 5 6 7 8 9 10 9 9 8 7 8 12 17 19 19 18 16 17 21 24 21 19 17 14 13 13 9 9 15 16 13 13 14 14 15 16 16 15 14 12 11 10 9 8 7 7 6
22 23 24 24 23 22 20 19 18 17 16 15 14 14 13 13 12 10 9 8 8 8 7 6 5 5 6 6 6 5 4 4 5 5 5 5 4 5 6 8 9 10 10 9 9 8 8 6 5 7 12 16 20 20 19 20 23 25 23 20 19 17 15 13 9 10 15 17 16 15 15 15 15 15 16 15 13 12 11 10 9 9 8 8 7
21 23 24 24 23 22 21 19 18 17 16 14 13 12 13 13 12 10 8 8 8 8 7 6 5 5 5 6 6 5 4 4 4 5 5 5 4 4 6 8 8 9 9 8 7 8 8 7 5 5 7 10 15 19 20 21 23 24 23 21 21 20 17 15 12 11 14 17 17 16 16 16 15 14 14 14 12 12 11 10 10 10 9 9 9
21 22 22 21 22 22 20 19 17 16 15 13 12 12 13 13 11 9 7 7 8 8 7 6 5 5 5 6 5 5 4 4 4 5 6 5 4 4 5 7 8 8 8 7 7 8 8 9 8 7 7 8 11 15 18 20 20 21 21 22 22 21 19 18 15 12 12 15 18 18 17 16 16 15 14 14 13 12 11 10 10 10 11 11 11
24 22 19 18 18 17 18 18 15 14 13 12 11 12 12 11 10 8 7 7 7 6 6 6 5 5 5 5 5 4 3 3 3 4 6 5 4 4 6 7 8 7 6 6 7 9 9 10 10 10 9 10 10 12 15 16 16 17 19 20 21 22 20 19 17 14 12 13 16 18 18 17 17 16 16 15 14 14 13 13 12 11 11 12 13
28 24 19 17 15 15 15 15 14 13 13 12 12 12 12 10 9 8 7 7 7 6 5 5 5 6 6 5 5 4 2 3 3 4 5 6 5 5 7 8 7 7 6 6 8 9 10 10 10 10 10 10 11 11 12 13 13 14 14 15 18 20 21 20 19 17 15 12 13 17 18 18 18 17 16 16 16 16 16 16 14 13 13 14 14
30 27 24 20 17 16 14 12 11 12 13 12 11 11 11 9 8 8 8 8 7 5 4 4 4 5 6 5 5 4 2 2 3 3 5 5 5 6 8 8 8 7 7 7 7 8 8 8 8 9 8 8 9 10 11 12 12 12 11 11 12 15 17 19 19 18 16 14 13 15 17 18 18 17 16 16 16 16 17 17 16 14 13 14 15
28 25 24 22 18 15 12 9 8 10 10 9 9 9 10 9 8 8 9 9 7 5 4 4 3 4 4 4 4 4 4 2 2 3 3 3 3 5 7 9 8 7 7 7 7 7 7 7 6 6 7 7 7 8 9 10 11 11 11 10 10 11 14 17 19 18 16 15 14 15 16 18 18 17 16 15 16 17 18 18 17 15 15 15 15
24 22 21 21 19 15 12 10 10 9 8 8 9 10 10 9 8 8 9 9 7 5 4 4 5 5 4 4 4 5 5 3 2 2 2 2 2 3 5 8 8 7 7 8 8 8 8 8 7 7 7 7 7 8 8 8 9 10 11 11 11 12 13 16 17 17 16 15 15 15 16 18 18 18 18 18 19 19 18 18 18 16 16 16 15
19 18 17 17 17 16 13 11 10 8 6 7 9 9 9 8 8 8 8 8 7 6 4 4 4 5 5 5 5 5 5 4 3 3 4 5 5 5 6 7 9 9 8 8 9 9 9 10 10 10 10 10 10 9 9 9 9 9 10 11 12 13 14 16 17 17 17 17 17 17 17 19 20 21 22 22 21 19 18 19 19 17 17 16 14
21 19 18 17 16 16 14 12 10 8 6 6 7 6 6 7 7 7 7 7 7 6 5 3 3 4 5 6 7 7 7 6 5 5 5 6 7 7 8 8 10 10 10 10 10 10 11 12 13 13 13 13 12 12 11 11 11 11 11 11 12 13 14 16 17 18 19 19 19 17 18 20 22 22 23 23 22 21 19 20 21 21 21 18 15
27 24 22 21 20 19 18 17 15 14 13 12 11 10 9 8 7 7 6 6 5 4 3 2 3 3 2 3 5 7 7 8 9 9 8 8 8 9 9 10 11 12 13 13 13 14 15 15 16 16 16 16 15 15 14 13 13 13 13 13 12 13 14 16 17 18 19 20 20 20 20 22 23 23 23 23 22 21 20 20 22 23 24 23 18
31 29 26 25 24 23 22 22 22 20 19 18 16 15 14 13 11 10 10 9 8 7 7 6 6 5 3 2 1 0 2 5 7 9 10 10 11 11 12 13 13 14 14 15 16 17 19 20 20 20 19 19 18 18 17 16 17 16 16 16 15 15 15 16 17 18 18 19 20 21 21 21 22 22 22 22 22 22 20 20 22 23 24 24 19
33 32 31 28 27 27 27 27 27 25 23 21 19 19 18 17 16 14 13 11 10 11 10 9 8 7 6 6 5 4 3 2 3 5 7 9 10 12 13 14 15 17 18 18 19 20 21 22 23 23 23 22 21 21 20 20 20 20 20 20 19 19 18 19 19 19 20 20 20 20 20 19 18 18 17 16 18 19 18 18 21 23 22 20 17
33 32 33 31 29 28 28 28 28 27 26 24 23 22 20 19 18 16 14 14 14 14 13 12 11 10 9 8 7 6 5 3 3 3 5 6 7 8 10 11 13 15 17 19 21 23 23 24 24 24 24 24 23 23 24 24 24 24 23 23 23 23 22 22 21 21 22 22 22 23 22 20 18 18 17 18 20 21 21 22 22 21 20 17 14
33 31 32 31 29 26 24 24 24 22 22 23 24 24 22 20 18 16 14 14 14 14 14 14 14 12 11 10 8 8 7 6 5 5 6 6 7 8 9 11 12 13 14 15 17 19 21 23 24 25 26 26 26 25 25 25 25 26 26 26 26 26 25 24 23 22 22 22 21 22 22 21 20 20 19 21 24 25 24 22 19 19 18 15 12
31 30 30 30 29 26 23 22 21 18 17 18 20 20 20 20 19 17 15 13 13 14 14 14 14 13 12 11 10 10 10 8 7 7 7 7 8 9 10 12 13 14 16 16 16 17 17 18 20 22 24 26 27 27 26 25 25 26 27 27 27 27 26 25 25 24 23 22 21 22 22 22 22 20 19 20 22 24 23 21 20 20 18 14 11
27 25 25 25 25 24 22 21 20 18 16 15 15 13 12 13 15 16 16 15 14 13 13 12 12 12 12 11 11 10 10 10 10 9 9 9 9 9 10 12 13 15 16 17 18 17 17 17 18 20 22 23 24 24 25 24 25 25 27 27 27 27 27 27 27 27 25 23 23 24 23 22 19 17 16 17 18 20 22 21 20 19 17 13 11
26 24 22 22 21 20 20 19 18 18 16 15 14 11 9 8 9 11 13 14 13 13 12 11 11 11 11 10 10 10 10 10 10 10 11 11 11 11 12 13 13 14 16 18 19 19 19 18 18 19 20 22 22 22 23 23 24 25 26 26 27 28 29 29 29 28 25 22 21 21 19 17 16 14 14 17 18 18 18 16 16 16 15 13 12
24 23 21 21 21 20 19 18 17 16 14 13 12 12 10 9 8 8 9 11 11 12 11 11 11 10 10 10 10 10 11 10 10 10 11 12 12 13 13 14 15 16 17 18 20 21 21 20 20 19 19 20 21 22 22 23 24 25 26 27 28 29 30 29 28 27 24 20 19 18 16 15 15 15 18 20 19 17 15 13 13 14 14 14 13
21 21 20 20 20 19 18 17 16 15 13 11 11 11 11 10 9 8 7 7 9 10 11 11 11 10 10 11 11 11 12 13 13 12 12 13 14 14 15 15 17 18 19 20 21 22 23 23 22 21 21 22 22 22 22 22 24 26 27 28 29 29 29 28 26 24 23 21 20 19 17 16 17 19 20 20 18 16 14 12 13 13 12 11 12
19 19 19 19 18 17 16 15 14 14 13 11 11 11 11 9 9 8 8 8 9 10 12 12 12 12 12 12 12 13 14 15 16 15 14 14 15 16 16 17 17 19 21 22 23 24 25 25 24 23 22 23 24 24 23 22 22 24 27 28 29 29 28 27 24 22 22 23 21 20 19 19 20 21 20 19 17 15 14 13 13 12 10 8 8
19 19 19 18 17 16 15 14 14 13 13 12 12 11 11 10 10 10 10 11 12 12 13 13 14 14 14 14 14 14 15 15 16 17 17 16 16 16 16 17 17 18 20 21 23 24 24 25 25 25 24 24 24 24 25 23 21 22 23 24 27 28 28 26 24 23 24 24 23 22 22 22 23 22 21 20 18 16 15 13 12 11 9 8 6
19 19 20 19 17 16 14 14 14 14 14 14 13 13 13 12 12 12 12 12 12 13 13 13 14 15 16 16 16 16 16 16 16 17 17 17 17 17 17 17 17 18 20 21 22 23 23 23 24 24 25 26 25 25 25 24 23 22 21 21 24 26 27 27 25 24 25 25 25 24 24 25 25 24 22 20 19 17 15 14 12 10 8 7 6
18 18 18 18 18 16 16 15 15 14 14 14 14 14 14 13 13 13 13 12 13 13 13 13 14 15 16 17 19 19 19 19 19 18 18 17 17 17 17 18 18 18 20 21 22 22 23 22 22 22 23 25 26 27 26 25 23 21 20 20 22 25 26 27 26 26 27 27 27 26 26 26 25 24 22 21 19 18 16 15 13 10 8 6 6
17 16 15 16 16 16 15 15 14 13 13 13 13 12 12 12 12 12 12 12 12 13 13 14 14 15 16 17 18 19 20 21 20 19 18 18 17 16 17 17 18 18 20 21 22 23 23 23 23 22 21 22 23 25 25 24 22 20 19 21 24 26 26 27 28 29 29 29 28 27 28 27 25 23 23 22 20 19 17 15 13 10 7 6 7
15 15 14 14 14 13 12 12 11 11 11 11 11 11 12 12 12 12 12 12 12 13 13 14 14 14 15 16 17 18 20 19 19 18 18 18 18 17 17 17 17 18 20 22 23 24 24 24 24 23 21 20 20 22 23 23 22 22 22 23 26 27 28 30 31 31 31 30 28 28 29 28 26 25 24 23 21 18 15 12 11 10 8 8 9
13 13 12 11 11 10 10 10 10 10 10 10 11 12 14 14 13 12 11 11 12 13 13 13 14 14 15 16 17 19 19 18 17 17 17 18 19 20 20 20 19 20 22 23 25 26 25 23 23 22 20 18 17 18 20 21 23 23 24 25 26 28 29 31 30 30 30 29 29 30 30 29 29 28 25 23 20 17 13 10 10 10 10 10 9
11 10 10 10 10 9 9 9 9 9 9 9 11 13 14 14 13 12 11 9 9 11 12 12 12 13 14 15 17 18 19 19 17 16 17 18 19 21 22 22 23 24 24 23 24 25 24 22 21 20 19 17 17 17 17 19 21 23 25 27 26 26 28 30 31 30 30 30 32 34 33 32 31 29 26 23 20 16 13 11 11 11 11 9 7
10 10 10 10 10 10 10 10 10 10 10 11 12 14 14 13 13 13 13 12 10 8 8 9 10 11 12 13 13 15 17 18 18 18 19 19 20 21 22 22 23 25 25 24 24 23 21 20 19 19 17 17 17 17 17 18 20 23 24 24 24 25 27 30 31 31 32 35 37 37 36 35 33 30 27 24 21 17 15 13 12 11 10 8 6
10 10 10 10 10 11 11 11 11 11 12 13 14 15 16 16 15 14 15 15 13 9 8 10 12 12 12 14 14 15 16 17 17 18 19 20 20 21 21 21 23 24 24 23 22 21 18 17 18 18 17 17 17 17 16 17 18 20 21 21 21 24 27 29 30 32 36 38 39 38 38 37 35 31 27 24 22 19 17 14 13 11 9 7 7
9 10 11 11 12 12 13 13 13 13 15 16 16 16 17 19 19 18 17 17 14 12 12 14 15 14 13 14 15 16 16 17 18 18 18 19 19 19 20 21 22 23 21 19 18 16 15 15 16 17 17 17 17 15 15 15 15 15 16 16 17 21 25 28 31 33 35 38 40 40 39 37 34 30 27 24 22 21 19 16 14 12 9 8 8
10 11 11 12 13 14 14 13 12 14 16 17 17 17 18 19 20 22 22 20 18 16 16 17 17 16 15 14 14 15 16 17 18 18 18 18 18 18 19 20 21 21 19 16 13 12 13 13 14 16 17 17 15 14 13 13 12 12 12 11 14 16 19 23 28 31 31 32 36 38 37 34 31 28 26 24 22 21 20 17 14 11 10 10 9
11 11 11 12 13 14 13 11 10 12 14 15 16 17 18 17 18 20 22 23 23 22 20 19 18 17 15 13 14 16 18 19 18 18 17 17 16 17 17 18 19 19 16 13 12 12 12 13 13 14 15 16 15 13 12 11 10 10 9 10 12 13 14 18 25 30 30 30 32 33 33 31 29 27 26 24 22 20 19 16 14 12 11 10 8
11 10 9 10 12 12 11 9 10 12 13 14 15 16 16 16 16 17 17 19 21 22 22 20 19 16 14 14 16 18 19 19 17 15 14 14 14 15 15 16 16 14 12 10 11 13 14 14 14 14 15 15 14 14 13 11 10 10 10 11 12 13 16 20 24 29 31 31 31 30 29 28 27 26 25 24 21 20 18 16 14 12 11 10 8
11 9 8 9 11 11 9 9 10 12 13 14 14 15 15 15 15 16 16 15 16 18 20 19 18 16 15 15 16 17 17 17 15 14 13 12 12 12 12 12 12 11 10 10 11 13 14 15 15 15 16 15 15 14 15 14 13 13 14 16 20 23 25 27 27 28 29 29 29 28 27 26 24 23 22 21 20 18 17 15 14 12 11 10 8
10 9 8 9 10 10 9 9 10 11 13 14 14 14 15 15 14 14 14 14 15 16 18 18 19 19 19 18 16 15 16 16 15 14 14 13 12 12 12 12 12 12 13 13 14 15 15 14 15 16 16 16 14 14 15 16 15 17 18 21 26 29 30 30 29 28 28 28 27 26 24 23 22 21 21 21 19 17 16 15 14 13 10 8 7
9 8 7 9 9 8 8 9 10 10 12 14 15 15 14 14 13 13 13 14 15 17 17 17 18 20 21 20 18 17 17 17 17 17 17 16 15 14 13 12 12 13 14 15 15 16 15 15 15 15 15 15 14 13 15 16 17 20 23 26 28 29 29 28 27 27 26 26 24 23 22 21 21 20 18 18 18 17 17 16 14 12 10 8 8
8 7 8 9 8 7 8 9 9 10 12 15 16 14 13 12 12 12 12 13 15 17 17 17 17 18 20 21 20 19 19 20 20 20 20 19 18 17 15 14 13 13 14 14 14 13 12 13 13 13 13 13 12 12 13 15 19 23 26 27 29 29 27 27 26 26 26 24 23 22 21 20 19 17 15 16 18 19 18 16 12 11 10 10 9
7 7 8 9 7 6 7 8 8 9 12 15 15 13 10 10 11 11 12 13 14 15 16 16 16 17 18 19 20 19 19 20 20 19 19 19 19 18 17 16 15 15 15 14 14 13 12 11 10 10 10 11 11 11 13 16 21 26 28 29 29 28 27 26 26 25 23 22 21 21 20 19 18 16 16 18 19 19 17 14 12 11 11 10 7
6 6 8 8 7 7 7 7 8 9 11 13 14 12 8 9 11 11 12 13 13 12 13 14 15 16 16 17 17 17 16 17 18 17 16 16 16 16 16 16 16 16 14 13 13 13 11 8 7 6 6 7 8 10 14 19 23 26 28 28 28 26 25 24 22 20 18 18 18 18 18 18 17 17 18 19 19 17 14 13 12 12 10 7 5
5 6 8 9 8 8 7 7 8 9 10 12 13 10 7 8 10 11 12 12 11 11 12 13 14 14 15 15 15 14 14 14 15 15 15 14 14 14 14 14 14 14 13 12 11 10 8 5 2 1 2 5 8 12 17 21 24 26 27 26 24 23 22 20 17 16 16 17 17 17 17 17 16 17 18 18 16 14 13 12 12 10 7 5 5
4 5 8 9 8 8 8 7 7 9 10 12 11 7 5 7 9 10 11 11 10 10 12 14 14 15 14 14 14 15 15 15 15 14 14 14 14 14 13 11 11 12 12 11 10 8 7 4 4 7 8 9 13 17 20 23 25 26 24 22 19 19 18 16 15 16 16 16 16 16 16 16 15 16 16 15 14 13 12 11 9 7 5 5 5
3 5 8 9 9 8 7 7 8 9 10 10 8 3 3 5 8 9 10 10 10 11 12 12 13 14 14 14 15 17 17 17 15 14 14 13 13 13 11 10 10 10 11 11 11 9 7 6 7 9 11 12 14 16 18 20 21 20 18 16 16 16 15 14 15 16 16 15 14 14 14 14 15 15 14 13 11 12 12 10 7 6 6 5 5
3 5 8 9 9 8 6 6 8 10 10 7 3 1 2 4 7 8 9 8 9 11 11 11 11 12 12 13 16 17 18 17 15 14 14 13 13 12 11 9 9 9 10 12 12 11 11 11 10 10 10 10 11 12 12 13 13 13 12 12 13 14 13 13 14 15 13 12 12 14 14 14 14 14 13 11 10 10 9 8 7 7 7 6 4
4 5 7 9 9 8 6 7 8 8 8 5 2 2 1 4 7 8 8 7 9 11 10 9 10 11 12 13 15 17 17 17 15 15 14 13 12 12 10 9 9 9 10 12 13 14 13 13 12 12 13 12 12 12 12 12 12 11 10 10 10 11 12 12 12 11 9 8 9 12 14 14 13 13 12 11 10 8 7 7 6 6 6 5 4
5 4 6 9 9 7 6 6 6 6 6 4 2 1 2 5 7 7 8 8 9 10 9 9 10 10 12 13 15 15 16 15 14 14 13 13 12 11 11 11 12 11 11 11 12 14 14 14 14 14 14 14 13 13 13 12 11 10 9 9 10 11 11 11 9 8 7 6 8 11 13 14 13 12 12 10 9 8 7 6 6 6 6 6 6
6 4 5 8 8 6 5 5 4 4 4 3 2 1 3 5 7 7 7 8 7 7 7 8 9 10 11 12 12 13 14 14 14 14 13 13 13 13 14 15 15 14 14 14 14 15 17 17 17 16 16 15 15 14 13 12 11 11 10 10 9 9 9 8 7 7 7 8 9 11 12 12 11 11 10 8 7 7 7 5 5 6 7 6 5
7 5 4 6 7 5 4 3 2 2 2 2 1 1 3 6 6 5 5 5 5 5 5 6 7 8 9 10 10 11 12 13 13 13 13 13 14 14 14 15 15 15 15 16 16 16 16 17 16 16 15 15 14 13 12 11 10 10 9 8 7 6 6 6 6 7 8 9 10 9 9 10 9 8 7 6 5 6 6 4 3 5 6 5 4
7 6 4 5 6 5 4 3 1 0 1 1 0 2 3 4 4 4 4 4 4 4 4 6 6 7 8 8 8 9 10 10 11 11 10 11 11 12 12 12 13 13 14 14 14 14 14 14 13 13 13 12 12 11 10 9 8 7 7 7 7 6 6 6 6 7 8 9 9 8 7 8 7 6 5 4 4 4 4 2 2 3 4 3 4
8 7 5 3 4 4 4 3 1 0 0 0 1 2 2 3 3 4 5 5 4 3 4 5 6 5 6 7 8 9 9 10 10 10 10 10 9 9 10 10 10 11 11 11 11 12 12 12 11 11 11 10 10 10 9 8 8 7 7 8 8 8 7 7 8 9 9 9 9 8 7 6 5 4 4 4 3 2 2 0 0 2 2 1 3
Wind_Direction
180 184 187 190 190 190 192 193 190 188 186 184 185 185 187 187 185 181 175 176 184 186 185 183 171 156 156 158 147 130 128 128 124 131 142 146 149 151 157 162 163 162 163 163 165 169 174 185 198 198 199 203 203 201 200 202 203 202 205 207 206 204 198 188 168 166 186 193 186 181 183 184 187 185 185 188 186 182 183 183 182 180 179 180 179
176 180 184 187 189 190 192 190 187 188 188 188 186 183 184 184 182 179 176 178 184 185 183 177 162 152 153 158 159 148 139 141 140 144 153 157 150 141 152 161 156 151 155 159 164 169 170 174 192 199 200 206 209 209 204 199 201 203 207 213 217 216 212 204 185 167 182 192 190 190 193 194 194 191 192 195 194 195 199 201 201 197 193 197 201
172 176 180 183 185 187 189 188 187 190 189 186 181 177 179 180 178 177 176 176 178 177 179 178 170 164 159 158 164 164 164 170 172 174 177 181 175 160 162 169 164 157 155 155 162 172 171 171 179 190 195 200 203 205 203 201 203 207 211 218 225 226 222 215 204 187 187 192 193 197 201 201 200 197 198 202 203 207 211 215 220 220 216 211 209
170 173 175 178 182 185 187 187 188 188 184 178 175 174 175 176 175 175 174 170 171 173 177 181 179 173 171 171 172 171 172 175 182 191 193 192 194 189 181 182 180 175 171 168 174 182 182 176 171 171 176 180 187 195 200 205 209 213 219 225 229 232 228 220 213 206 199 196 198 202 205 207 207 205 206 208 212 219 224 228 233 237 234 223 214
169 172 171 172 176 179 180 181 183 185 180 171 169 171 173 175 174 172 170 167 170 173 171 173 173 168 170 175 173 171 179 185 189 198 197 190 192 198 193 189 188 188 193 196 195 193 191 183 170 161 162 163 168 182 194 205 212 218 227 233 235 235 230 221 217 218 217 210 204 205 208 210 211 213 215 218 221 226 231 237 242 245 242 228 215
169 169 162 156 158 164 169 174 179 182 178 169 168 172 174 178 177 172 168 166 167 168 160 158 165 170 174 174 172 175 191 205 206 208 206 201 201 204 198 191 193 200 204 205 203 199 195 189 179 172 171 171 172 180 190 199 208 216 225 234 238 237 231 223 220 222 226 226 216 209 209 212 215 218 220 224 230 233 237 241 244 247 243 225 211
168 167 158 149 152 158 159 163 172 177 174 168 170 174 175 179 181 175 171 169 169 172 169 162 161 170 181 185 188 197 205 210 216 216 215 215 217 214 206 202 203 202 199 195 194 195 198 200 199 196 197 201 202 202 204 206 211 216 220 226 232 234 228 221 219 221 224 227 223 215 211 213 218 222 224 229 235 239 240 239 236 235 229 215 207
167 167 163 160 162 161 155 157 166 169 167 162 168 182 185 186 188 186 180 179 184 190 192 196 195 190 193 196 200 204 203 209 223 217 216 221 225 221 214 214 214 210 209 208 203 202 206 210 216 218 220 227 235 235 231 229 228 227 225 224 225 226 222 217 217 219 222 224 225 221 216 215 218 223 227 228 230 232 233 232 230 223 212 205 205
166 164 163 163 164 164 164 172 173 171 170 169 178 189 191 191 194 196 194 196 205 212 213 231 238 228 219 211 205 204 204 210 220 221 241 260 268 252 227 224 228 229 231 234 231 230 233 237 241 245 247 249 251 251 249 247 245 242 239 233 228 224 221 221 223 225 225 224 224 223 219 219 219 220 223 224 227 231 228 223 222 215 205 201 201
147 145 140 140 149 157 159 163 168 174 181 177 179 184 186 189 190 192 199 206 213 222 236 250 243 232 230 224 213 209 211 222 240 248 255 262 269 268 252 240 239 241 243 243 243 245 248 254 258 261 266 268 265 260 255 253 252 251 251 249 244 239 232 228 230 232 231 228 227 224 221 223 224 223 225 228 230 233 228 218 213 205 197 195 194
114 115 111 114 124 131 131 132 139 144 142 145 150 154 169 181 184 187 196 202 209 222 238 241 213 214 231 230 220 218 223 233 244 252 257 260 263 266 265 258 252 251 252 250 251 254 257 262 265 267 272 275 275 271 265 260 255 251 251 252 253 253 250 246 243 239 235 233 234 233 229 233 235 231 231 232 231 232 229 220 212 201 194 193 193
96 95 96 102 105 108 111 111 112 113 112 113 114 113 124 135 138 145 150 151 164 177 169 147 150 173 214 236 233 234 244 253 255 257 260 262 264 265 267 267 264 261 260 260 261 263 264 266 267 266 269 270 270 269 266 264 262 258 255 253 250 251 253 253 252 249 244 240 239 241 242 243 245 242 238 236 234 232 228 221 216 210 205 203 200
86 85 85 90 92 94 99 97 93 94 96 98 101 102 103 102 100 101 103 110 121 123 117 114 112 118 127 124 119 251 279 276 270 267 266 265 265 265 265 266 266 265 265 265 267 268 270 271 271 270 270 270 267 263 262 262 262 260 258 255 252 249 247 248 251 252 252 250 246 249 251 251 252 253 250 244 239 233 225 219 218 216 214 211 205
77 77 77 78 81 85 89 87 82 80 83 88 92 91 86 82 81 83 88 93 95 96 96 97 95 93 93 93 89 80 61 345 292 278 275 271 269 269 269 270 270 268 269 269 269 271 272 273 275 276 276 275 272 268 265 264 264 262 260 257 254 250 247 246 246 246 249 250 249 252 257 258 258 259 258 257 252 242 235 232 227 220 214 210 204
69 71 72 70 70 74 79 79 75 72 72 75 77 76 72 69 70 71 75 77 75 77 80 80 80 79 77 80 83 74 55 19 328 298 288 284 280 278 276 276 276 275 275 275 274 274 274 273 274 276 277 277 276 273 271 270 268 265 262 260 258 255 251 248 246 245 246 246 248 252 255 257 260 262 264 266 263 258 253 249 238 220 206 196 191
66 66 68 67 65 65 67 70 67 63 62 61 61 60 56 54 53 52 59 66 65 65 67 66 66 67 68 72 71 61 47 25 357 330 310 298 290 285 281 278 278 277 278 281 283 283 282 281 279 278 278 278 278 277 276 273 270 266 263 262 259 256 254 252 250 248 246 246 249 251 251 254 261 266 266 261 256 253 248 237 222 206 192 179 174
67 65 66 67 65 61 61 63 60 56 55 52 48 49 47 44 40 36 39 47 51 52 52 52 53 52 53 55 53 48 42 28 12 354 336 321 307 299 293 286 281 277 274 275 279 285 288 291 291 287 284 281 280 280 278 274 269 264 262 260 258 254 251 251 251 250 250 250 251 251 252 257 263 267 266 257 248 240 227 209 197 193 188 174 170
68 65 64 64 63 60 59 60 58 55 55 50 43 39 35 32 30 28 27 30 36 40 41 41 41 39 38 37 33 32 33 28 16 5 355 344 332 323 313 303 294 288 281 274 273 276 278 281 287 290 287 285 283 281 279 275 268 262 258 255 252 251 251 253 253 252 251 251 252 254 257 259 261 262 256 241 228 221 213 204 197 196 194 188 182
69 65 63 63 62 61 59 60 60 59 60 59 53 48 39 24 13 10 15 20 24 27 29 31 30 28 25 21 13 9 13 13 9 4 358 350 343 336 329 322 313 305 298 289 283 280 276 274 276 281 284 286 287 285 281 276 269 266 263 256 250 252 258 260 258 258 257 254 253 254 252 248 248 244 226 209 202 203 206 206 204 203 204 201 190
73 69 66 64 64 63 62 62 63 64 65 64 59 56 49 36 18 1 359 0 2 9 17 24 25 23 17 9 1 356 354 352 353 353 349 343 339 334 331 330 325 319 313 307 300 293 288 283 279 278 282 286 287 287 284 278 273 270 266 259 254 260 267 266 262 263 262 254 245 243 237 229 226 216 201 194 193 196 198 197 198 204 208 205 196
73 69 66 64 63 62 62 62 62 63 63 60 57 54 46 39 32 22 7 357 355 360 6 10 11 10 5 359 353 349 344 341 338 337 336 334 330 327 326 328 327 321 316 312 308 304 300 296 292 288 286 285 285 286 285 282 278 273 268 265 265 267 269 268 265 261 253 244 234 228 221 212 204 198 195 194 194 195 194 189 188 194 202 204 199
68 66 64 63 61 59 57 56 56 55 52 47 47 48 44 37 31 25 16 8 5 4 2 359 356 352 350 346 343 340 336 333 329 326 324 324 323 321 320 320 320 319 314 309 306 303 303 301 299 295 291 287 285 283 282 281 279 275 272 271 271 270 268 266 263 253 241 233 224 213 207 205 200 195 194 193 191 190 191 187 185 188 191 194 197
65 64 64 63 60 58 55 51 48 46 42 40 39 39 39 36 29 24 17 10 7 5 1 356 351 347 344 340 338 335 331 328 326 323 320 317 317 317 316 315 314 313 311 307 303 301 300 299 296 294 291 286 283 281 279 277 276 274 274 273 270 266 262 258 253 243 231 221 211 205 204 203 199 192 189 187 185 184 184 182 182 185 186 186 191
63 63 62 59 56 54 54 50 48 45 42 39 36 34 31 28 24 22 17 12 9 6 2 358 353 348 344 339 336 334 332 327 324 323 321 317 314 312 311 311 312 311 307 304 302 301 300 298 295 292 288 283 279 277 275 273 271 270 272 274 269 260 252 247 242 233 221 210 205 205 204 200 195 190 186 184 181 179 178 176 175 179 182 185 191
67 67 65 60 56 54 55 54 50 45 38 32 27 24 21 16 13 10 5 1 360 357 355 352 349 346 342 339 336 334 333 330 328 327 326 322 316 312 307 305 306 308 306 304 303 302 301 300 297 292 288 283 279 275 272 270 268 266 266 270 266 254 245 240 234 223 213 208 208 207 201 195 192 188 184 180 176 174 172 168 166 169 174 178 180
69 70 67 62 58 56 55 52 45 37 31 25 20 16 11 5 0 355 350 348 346 343 342 341 340 338 336 334 333 330 329 329 329 328 326 322 318 313 307 303 303 305 307 307 306 303 302 301 299 296 291 285 279 274 271 269 266 262 258 258 257 249 239 232 225 217 212 210 209 204 195 189 185 181 177 173 171 170 169 166 162 162 168 172 172
67 68 65 61 59 56 51 46 39 32 26 20 15 10 4 358 352 346 345 343 340 338 337 336 335 333 330 328 327 324 323 324 326 326 324 320 316 310 304 303 303 304 306 307 307 305 303 302 301 299 295 288 278 271 267 265 263 259 253 252 250 245 236 229 224 221 218 216 209 198 188 182 177 173 170 168 165 163 165 167 164 160 162 172 174
73 73 69 65 60 52 45 40 34 29 23 17 12 6 2 359 356 353 352 348 342 339 336 331 329 328 326 323 321 319 318 320 322 322 320 316 312 307 304 302 303 303 303 305 307 306 303 301 301 301 301 297 289 278 269 265 263 259 254 252 249 242 235 230 226 223 220 213 199 186 179 174 170 166 164 162 159 156 158 164 164 161 164 173 172
79 81 75 68 60 51 45 38 30 26 22 16 11 6 2 2 2 1 4 4 354 343 334 327 326 324 320 320 318 314 313 316 319 318 314 309 306 304 302 300 300 301 302 306 306 303 300 300 301 302 303 301 298 292 284 275 268 261 255 252 247 239 230 223 218 215 210 199 187 179 173 167 164 162 159 156 154 153 155 159 161 161 160 162 157
75 75 69 62 55 47 40 35 30 27 22 16 10 4 1 3 5 6 10 13 11 5 352 342 341 337 328 326 323 315 313 316 318 313 307 303 301 300 299 297 295 296 302 307 305 297 295 297 299 301 301 297 293 291 287 280 271 264 259 253 245 235 225 216 211 206 199 190 183 176 169 164 161 159 157 154 152 152 155 158 160 159 153 147 141
65 64 59 51 44 37 31 28 28 27 22 17 12 6 3 5 8 11 12 9 10 20 22 10 5 358 345 337 332 325 321 321 319 313 306 302 300 299 299 296 292 295 303 307 301 292 291 294 297 299 299 295 291 287 283 276 269 264 262 258 246 232 219 210 206 202 193 184 177 172 167 163 160 158 157 156 153 153 156 159 160 157 150 143 143
49 49 44 35 30 26 21 21 25 25 19 15 13 9 5 2 1 3 5 6 8 12 11 7 5 1 352 343 337 332 328 324 321 318 314 309 305 301 299 297 295 298 305 305 298 294 296 297 297 299 298 293 289 283 276 270 264 260 259 254 239 225 214 206 200 195 186 177 171 166 163 160 158 157 158 156 155 156 160 162 161 156 149 144 143
31 30 26 22 19 16 14 17 24 21 13 8 5 3 1 358 355 353 354 357 0 2 3 4 2 357 355 352 345 339 335 330 325 321 319 317 313 308 303 300 298 300 303 300 294 295 299 297 297 300 298 292 285 278 271 264 257 251 246 233 217 212 209 200 190 182 176 169 162 157 156 156 156 156 156 156 157 160 161 161 158 152 146 144 140
20 16 14 13 10 9 12 17 18 13 6 2 357 354 355 356 355 352 350 350 351 353 357 2 3 1 1 2 359 353 347 340 333 326 322 319 315 309 305 302 300 299 299 295 289 290 293 294 297 302 299 290 279 269 260 251 241 233 223 207 199 197 193 184 176 170 165 160 154 151 152 155 156 156 156 156 158 160 159 158 154 148 145 143 133
12 9 8 5 3 5 9 10 5 360 357 355 352 350 352 355 355 355 354 351 348 349 352 360 8 12 11 6 1 357 352 348 344 341 335 330 324 316 309 307 306 303 298 292 288 291 294 294 295 298 296 288 276 263 248 233 219 205 189 174 168 164 160 158 157 154 153 153 152 152 154 156 156 156 155 155 157 158 156 153 150 145 140 133 119
7 6 3 358 358 1 2 360 356 354 354 355 354 352 354 357 357 358 360 359 355 352 351 357 6 12 12 7 1 357 359 2 3 3 359 355 351 345 339 333 329 323 315 306 300 299 298 295 293 294 292 286 277 263 245 227 206 187 173 160 149 145 144 144 144 144 147 151 153 154 156 157 157 156 154 153 154 154 151 147 144 139 130 120 109
3 5 0 354 355 357 356 352 351 352 355 359 359 359 1 3 3 5 8 7 3 358 354 355 360 4 9 13 10 4 7 12 15 15 14 11 8 8 6 360 348 336 328 325 321 317 311 303 296 293 291 286 280 265 247 229 205 180 165 155 148 144 143 143 144 146 149 152 154 155 157 158 158 156 152 150 148 147 146 144 141 134 124 111 102
2 3 356 351 351 353 351 352 353 354 357 0 3 5 7 7 9 15 18 14 7 0 358 359 2 2 4 9 12 11 10 13 16 18 18 16 14 12 10 4 354 342 334 332 330 325 318 311 303 295 289 285 278 262 245 228 202 178 164 155 149 147 146 146 147 149 151 152 155 159 161 160 158 155 150 147 147 147 146 144 138 129 119 107 99
1 360 351 347 349 349 349 353 356 357 357 1 5 7 8 10 15 18 18 13 7 3 1 3 6 5 3 5 10 12 10 9 9 8 8 10 12 12 11 9 3 355 347 343 342 338 329 320 313 303 290 280 270 253 235 216 191 174 164 156 152 150 150 149 150 152 153 155 159 163 162 157 153 150 146 145 147 146 142 138 131 123 115 104 95
357 353 345 345 346 344 347 351 355 355 356 0 4 8 12 16 17 14 8 4 3 2 2 3 4 6 6 6 7 7 5 5 5 2 1 5 8 10 12 11 5 360 355 351 351 353 347 332 320 308 291 273 256 237 216 193 175 166 160 156 153 152 152 152 153 154 156 159 161 161 157 151 146 144 143 142 141 138 134 128 121 116 112 103 93
349 345 342 345 344 340 341 344 345 348 352 356 1 9 21 23 17 10 5 4 3 3 4 3 4 8 13 13 11 7 4 4 4 2 1 5 9 11 12 9 4 2 359 353 352 356 354 340 321 306 284 256 233 211 190 175 164 158 153 149 147 146 147 148 149 151 153 156 157 155 152 148 145 143 141 138 135 132 128 122 118 116 112 108 103
336 338 344 348 345 339 337 337 339 342 346 351 357 9 27 27 18 14 12 10 9 6 2 2 6 13 17 17 15 11 9 7 6 3 3 7 14 17 14 10 9 8 3 357 358 3 1 352 342 314 219 203 190 176 167 161 155 149 145 142 141 141 141 140 141 144 148 152 155 154 151 148 145 141 138 136 132 128 126 125 124 121 114 112 114
318 335 349 353 350 344 339 336 338 341 341 343 349 5 35 28 18 20 22 19 12 3 360 3 9 14 15 11 7 8 10 11 9 7 6 8 14 19 19 18 21 21 16 13 18 20 14 22 84 109 115 132 145 147 146 146 145 143 142 140 136 134 133 132 137 145 152 155 157 155 151 147 143 140 137 134 129 127 129 129 127 123 113 107 109
304 338 351 352 352 351 344 336 340 343 341 338 338 1 53 32 18 25 33 27 8 358 0 6 11 14 14 10 7 9 14 16 14 14 15 15 16 20 24 28 33 38 40 38 38 40 45 63 102 121 118 119 127 131 133 137 142 144 141 134 127 125 127 133 142 151 155 157 157 156 153 149 144 141 137 132 128 130 131 129 127 127 127 122 113
292 337 351 350 350 353 348 340 344 348 346 343 341 109 79 30 20 30 41 32 7 357 1 10 15 17 16 13 12 15 20 23 24 24 24 23 22 25 30 37 45 55 65 69 70 72 75 83 99 114 117 116 120 123 125 130 135 134 127 121 120 124 130 139 147 153 156 158 158 157 156 153 147 143 138 134 132 132 130 125 121 121 123 127 120
283 326 347 348 350 353 351 347 353 360 360 5 54 131 70 25 26 33 40 31 9 360 4 15 23 25 23 20 21 25 28 30 30 30 30 31 32 33 37 46 55 64 79 89 91 90 89 89 94 99 101 103 105 107 108 110 113 114 115 118 123 127 132 140 147 151 155 160 160 159 158 156 151 147 142 139 138 137 130 123 122 118 119 125 112
275 306 339 346 349 355 353 352 4 14 14 23 76 120 36 33 34 33 38 35 18 7 12 25 32 32 31 29 31 35 38 38 37 37 38 43 49 55 61 65 68 73 81 89 92 93 92 92 94 95 96 96 95 96 98 101 102 105 111 118 127 132 136 140 143 142 145 158 165 163 161 157 153 151 149 143 139 136 132 124 115 111 119 122 100
268 283 329 344 349 355 355 355 7 20 27 41 67 60 38 41 39 42 52 49 25 8 19 35 40 40 39 37 38 44 48 49 49 49 52 58 65 72 76 76 76 79 83 86 88 90 91 90 91 91 91 92 91 92 94 97 100 106 112 118 128 135 139 141 142 140 145 160 169 166 160 156 152 151 151 146 135 132 136 132 108 101 111 112 91
262 262 305 338 347 355 358 356 1 30 44 47 55 65 53 43 37 49 66 53 20 12 34 47 46 46 46 45 46 51 56 59 59 59 61 67 72 76 77 77 77 78 80 82 83 85 85 84 85 85 86 87 88 89 91 95 100 106 111 115 122 131 135 138 142 142 145 155 163 163 158 155 151 146 145 143 133 128 136 137 106 102 110 102 80
262 249 271 323 340 351 1 357 343 38 39 9 43 92 70 43 27 41 57 44 25 34 55 55 50 51 53 54 54 53 55 59 61 60 60 64 67 69 71 71 72 74 76 77 78 79 79 79 80 80 81 82 82 83 84 88 92 97 102 106 112 119 122 124 132 138 143 148 153 154 153 152 150 143 137 135 132 136 145 147 114 116 118 94 78
262 241 241 290 324 342 360 3 352 249 15 286 163 111 74 37 26 44 54 52 50 63 69 62 57 57 57 56 56 52 49 48 49 48 48 51 54 56 59 62 65 68 71 71 72 74 76 78 79 81 81 82 81 78 78 81 86 93 101 107 109 111 111 110 113 121 129 133 135 137 142 147 150 148 143 137 134 140 151 203 220 163 149 80 75